KLM691 EHAM-CYYZ

Flight info

Callsign KLM691
Flight time N/A
Altitude 34000
Route BERGI L602 NALAX L46 LIBSO UL975 DESIG UL70 PENIL M144 BAGSO DCT DEVOL DCT DOGAL/M084F340 DCT 5420N DCT 5330N DCT 5240N DCT 5150N DCT ALLRY/N0482F340 N484E ANATI/N0485F360 DCT LIVBA Q848 LETAK IMEBA9
Aircraft B77W/H-SDE1E2E3FGHIJ2J3J4J5M1RWXY/LB1D1

Departure

Time 2026-04-30 14:07
Airport Amsterdam Airport Schiphol (EHAM)

Arrival

Time N/A
Airport Toronto Pearson International Airport (CYYZ)
Time Latitude Longitude Altitude Speed Heading
2026-04-30 13:45 52.31357 4.76071 4 ft 0 kts 146°
2026-04-30 13:54 52.31378 4.76049 6 ft 4 kts 147°
2026-04-30 13:54 52.31400 4.76024 6 ft 4 kts 144°
2026-04-30 13:54 52.31421 4.75997 5 ft 4 kts 130°
2026-04-30 13:54 52.31430 4.75964 6 ft 4 kts 71°
2026-04-30 13:55 52.31419 4.75928 7 ft 4 kts 39°
2026-04-30 13:55 52.31406 4.75915 6 ft 4 kts
2026-04-30 13:55 52.31380 4.75921 6 ft 4 kts 343°
2026-04-30 13:55 52.31361 4.75928 6 ft 0 kts 357°
2026-04-30 13:58 52.31375 4.75927 6 ft 5 kts 357°
2026-04-30 13:58 52.31433 4.75923 7 ft 10 kts 357°
2026-04-30 13:59 52.31499 4.75922 4 ft 10 kts 14°
2026-04-30 13:59 52.31531 4.76015 4 ft 10 kts 82°
2026-04-30 13:59 52.31535 4.76146 4 ft 12 kts 87°
2026-04-30 13:59 52.31540 4.76278 4 ft 12 kts 86°
2026-04-30 14:00 52.31544 4.76411 4 ft 12 kts 87°
2026-04-30 14:00 52.31527 4.76665 4 ft 12 kts 140°
2026-04-30 14:00 52.31472 4.76748 4 ft 12 kts 91°
2026-04-30 14:01 52.31477 4.76880 4 ft 12 kts 88°
2026-04-30 14:01 52.31481 4.77013 4 ft 12 kts 86°
2026-04-30 14:01 52.31488 4.77143 4 ft 10 kts 77°
2026-04-30 14:01 52.31543 4.77200 4 ft 10 kts 347°
2026-04-30 14:02 52.31569 4.77097 3 ft 11 kts 268°
2026-04-30 14:02 52.31562 4.76900 4 ft 26 kts 266°
2026-04-30 14:02 52.31551 4.76583 4 ft 28 kts 266°
2026-04-30 14:02 52.31540 4.76265 4 ft 28 kts 266°
2026-04-30 14:03 52.31529 4.75946 4 ft 28 kts 266°
2026-04-30 14:03 52.31518 4.75627 4 ft 28 kts 267°
2026-04-30 14:03 52.31507 4.75309 4 ft 28 kts 267°
2026-04-30 14:03 52.31496 4.74991 4 ft 28 kts 266°
2026-04-30 14:04 52.31489 4.74783 4 ft 9 kts 266°
2026-04-30 14:04 52.31506 4.74689 4 ft 9 kts 318°
2026-04-30 14:04 52.31566 4.74660 4 ft 9 kts 355°
2026-04-30 14:04 52.31630 4.74668 4 ft 9 kts
2026-04-30 14:05 52.31663 4.74724 4 ft 6 kts 76°
2026-04-30 14:05 52.31666 4.74756 4 ft 0 kts 86°
2026-04-30 14:05 52.31666 4.74758 4 ft 0 kts 86°
2026-04-30 14:05 52.31666 4.74764 4 ft 1 kts 86°
2026-04-30 14:06 52.31669 4.74826 3 ft 18 kts 86°
2026-04-30 14:06 52.31733 4.76691 3 ft 142 kts 87°
2026-04-30 14:07 52.31867 4.80519 606 ft 176 kts 83°
2026-04-30 14:07 52.32439 4.82315 935 ft 194 kts 41°
2026-04-30 14:07 52.33786 4.82951 1269 ft 216 kts 359°
2026-04-30 14:08 52.36641 4.80819 2086 ft 245 kts 335°
2026-04-30 14:08 52.38186 4.79444 2464 ft 260 kts 334°
2026-04-30 14:08 52.41114 4.75528 3477 ft 284 kts 310°
2026-04-30 14:09 52.42433 4.73091 3978 ft 293 kts 313°
2026-04-30 14:09 52.43852 4.70673 4644 ft 296 kts 314°
2026-04-30 14:09 52.46837 4.65959 5975 ft 298 kts 328°
2026-04-30 14:10 52.48716 4.64564 6443 ft 298 kts 344°
2026-04-30 14:10 52.50685 4.63399 7119 ft 300 kts 342°
2026-04-30 14:10 52.52638 4.62181 7832 ft 300 kts 342°
2026-04-30 14:10 52.54589 4.60942 8498 ft 302 kts 342°
2026-04-30 14:11 52.56564 4.59673 9138 ft 305 kts 342°
2026-04-30 14:11 52.58552 4.58388 9777 ft 308 kts 342°
2026-04-30 14:11 52.60529 4.57102 10379 ft 310 kts 341°
2026-04-30 14:11 52.62408 4.55218 10718 ft 324 kts 315°
2026-04-30 14:12 52.63764 4.52213 10865 ft 340 kts 303°
2026-04-30 14:12 52.65089 4.48841 11029 ft 361 kts 303°
2026-04-30 14:12 52.66489 4.45249 11203 ft 383 kts 303°
2026-04-30 14:12 52.67955 4.41467 11535 ft 398 kts 303°
2026-04-30 14:13 52.69463 4.37562 12068 ft 408 kts 303°
2026-04-30 14:13 52.70995 4.33586 12832 ft 413 kts 303°
2026-04-30 14:13 52.72542 4.29571 13725 ft 415 kts 303°
2026-04-30 14:13 52.74096 4.25534 14538 ft 418 kts 303°
2026-04-30 14:14 52.75665 4.21458 15252 ft 423 kts 303°
2026-04-30 14:14 52.77254 4.17325 15946 ft 428 kts 303°
2026-04-30 14:14 52.78861 4.13141 16652 ft 433 kts 303°
2026-04-30 14:14 52.80483 4.08910 17369 ft 437 kts 303°
2026-04-30 14:15 52.82118 4.04640 18082 ft 442 kts 303°
2026-04-30 14:15 52.83747 4.00378 18745 ft 446 kts 302°
2026-04-30 14:15 52.85411 3.96016 19361 ft 450 kts 302°
2026-04-30 14:15 52.87083 3.91627 20057 ft 452 kts 302°
2026-04-30 14:16 52.88764 3.87203 20747 ft 453 kts 302°
2026-04-30 14:16 52.90447 3.82771 21407 ft 456 kts 302°
2026-04-30 14:16 52.92136 3.78311 22045 ft 459 kts 302°
2026-04-30 14:16 52.93836 3.73816 22667 ft 462 kts 302°
2026-04-30 14:17 52.95545 3.69291 23270 ft 464 kts 302°
2026-04-30 14:17 53.00696 3.55597 24831 ft 474 kts 302°
2026-04-30 14:17 53.07700 3.36853 26623 ft 485 kts 301°
2026-04-30 14:17 53.12373 3.15519 28353 ft 492 kts 282°
2026-04-30 14:18 53.15497 2.93158 30072 ft 497 kts 282°
2026-04-30 14:18 53.18692 2.70692 31511 ft 498 kts 282°
2026-04-30 14:18 53.24934 2.25895 34171 ft 493 kts 281°
2026-04-30 14:19 53.33252 1.64030 34440 ft 509 kts 280°
2026-04-30 14:19 53.39229 1.17849 34291 ft 502 kts 279°
2026-04-30 14:19 53.44894 0.72616 34192 ft 489 kts 279°
2026-04-30 14:20 53.50291 0.28027 34302 ft 488 kts 278°
2026-04-30 14:20 53.54031 -0.17324 34439 ft 491 kts 269°
2026-04-30 14:20 53.57446 -1.11015 34242 ft 501 kts 270°
2026-04-30 14:21 53.58988 -1.57303 34148 ft 490 kts 269°
2026-04-30 14:21 53.60357 -2.03165 34232 ft 491 kts 268°
2026-04-30 14:21 53.62624 -2.96622 34237 ft 507 kts 267°
2026-04-30 14:22 53.63481 -3.43777 34108 ft 496 kts 266°
2026-04-30 14:22 53.64605 -4.34378 34140 ft 476 kts 267°
2026-04-30 14:22 53.66766 -4.79430 34230 ft 487 kts 273°
2026-04-30 14:23 53.77030 -6.62753 34058 ft 487 kts 270°
2026-04-30 14:24 53.81012 -7.54214 34166 ft 495 kts 268°
2026-04-30 14:24 53.82786 -8.01331 34187 ft 503 kts 268°
2026-04-30 14:25 53.85786 -8.95304 34071 ft 495 kts 268°
2026-04-30 14:25 53.88018 -9.88441 34154 ft 501 kts 266°
2026-04-30 14:26 53.90646 -10.84262 34095 ft 513 kts 269°
2026-04-30 14:26 53.92519 -11.32089 34011 ft 503 kts 268°
2026-04-30 14:26 53.95493 -12.26451 34173 ft 504 kts 267°
2026-04-30 14:27 53.96739 -12.74573 34207 ft 513 kts 267°
2026-04-30 14:27 53.97797 -13.22418 34071 ft 512 kts 267°
2026-04-30 14:27 53.98647 -13.70297 34028 ft 500 kts 267°
2026-04-30 14:28 53.99754 -14.63326 34141 ft 491 kts 268°
2026-04-30 14:28 54.00105 -15.10313 34230 ft 500 kts 269°
2026-04-30 14:28 54.01714 -16.04034 34020 ft 482 kts 269°
2026-04-30 14:29 54.02469 -16.94619 34251 ft 485 kts 268°
2026-04-30 14:29 54.02548 -17.72067 34162 ft 492 kts 269°
2026-04-30 14:30 54.01383 -19.21780 34254 ft 471 kts 267°
2026-04-30 14:31 53.99556 -20.11462 34238 ft 474 kts 265°
2026-04-30 14:31 53.90918 -21.44878 34334 ft 479 kts 265°
2026-04-30 14:32 53.84274 -22.36220 34281 ft 490 kts 265°
2026-04-30 14:32 53.80696 -22.81541 34231 ft 482 kts 265°
2026-04-30 14:33 53.73119 -23.71145 34366 ft 488 kts 266°
2026-04-30 14:33 53.64597 -24.63618 34353 ft 504 kts 266°
2026-04-30 14:33 53.60014 -25.10156 34284 ft 501 kts 266°
2026-04-30 14:34 53.50489 -26.01326 34405 ft 496 kts 265°
2026-04-30 14:34 53.40065 -26.93801 34393 ft 508 kts 264°
2026-04-30 14:35 53.30894 -27.69974 34295 ft 493 kts 263°
2026-04-30 14:35 53.23350 -28.29666 34396 ft 492 kts 262°
2026-04-30 14:35 53.17444 -28.74652 34484 ft 503 kts 262°
2026-04-30 14:36 53.11215 -29.20617 34477 ft 510 kts 261°
2026-04-30 14:36 53.04911 -29.65741 34349 ft 505 kts 260°
2026-04-30 14:36 52.98923 -30.10716 34259 ft 488 kts 267°
2026-04-30 14:36 52.96837 -30.55568 34462 ft 493 kts 268°
2026-04-30 14:37 52.93861 -31.01406 34538 ft 507 kts 266°
2026-04-30 14:37 52.90754 -31.48082 34425 ft 507 kts 266°
2026-04-30 14:37 52.87482 -31.94053 34314 ft 497 kts 265°
2026-04-30 14:38 52.80595 -32.83823 34469 ft 494 kts 265°
2026-04-30 14:38 52.76849 -33.29254 34528 ft 505 kts 264°
2026-04-30 14:38 52.72859 -33.75318 34444 ft 506 kts 263°
2026-04-30 14:38 52.68729 -34.20865 34339 ft 497 kts 263°
2026-04-30 14:39 52.64506 -34.65486 34352 ft 490 kts 262°
2026-04-30 14:39 52.60122 -35.09911 34508 ft 495 kts 262°
2026-04-30 14:39 52.55484 -35.55175 34543 ft 506 kts 261°
2026-04-30 14:40 52.45650 -36.45771 34367 ft 496 kts 259°
2026-04-30 14:40 52.40594 -36.89859 34364 ft 490 kts 259°
2026-04-30 14:40 52.35355 -37.33990 34475 ft 496 kts 258°
2026-04-30 14:40 52.29909 -37.78355 34518 ft 501 kts 258°
2026-04-30 14:41 52.18393 -38.67766 34450 ft 505 kts 257°
2026-04-30 14:41 52.06212 -39.56662 34414 ft 507 kts 256°
2026-04-30 14:42 51.97944 -40.31376 34402 ft 496 kts 266°
2026-04-30 14:42 51.92636 -41.20487 34540 ft 505 kts 263°
2026-04-30 14:43 51.86263 -42.11325 34371 ft 502 kts 262°
2026-04-30 14:43 51.82885 -42.55766 34380 ft 491 kts 262°
2026-04-30 14:43 51.79390 -42.99381 34424 ft 489 kts 261°
2026-04-30 14:44 51.74482 -43.57440 34401 ft 493 kts 261°
2026-04-30 14:44 51.70598 -44.01113 34158 ft 494 kts 261°
2026-04-30 14:45 51.68598 -44.22905 34285 ft 489 kts 261°
2026-04-30 14:45 51.66577 -44.44463 34365 ft 486 kts 261°
2026-04-30 14:45 51.62429 -44.87399 34591 ft 486 kts 260°
2026-04-30 14:46 51.60271 -45.09084 34565 ft 498 kts 260°
2026-04-30 14:46 51.58038 -45.31097 34253 ft 495 kts 259°
2026-04-30 14:46 51.55808 -45.52671 34117 ft 482 kts 259°
2026-04-30 14:46 51.53594 -45.73691 34484 ft 479 kts 259°
2026-04-30 14:47 51.51310 -45.94986 34718 ft 489 kts 259°
2026-04-30 14:47 51.48925 -46.16834 34378 ft 493 kts 258°
2026-04-30 14:47 51.46548 -46.38242 34129 ft 480 kts 258°
2026-04-30 14:47 51.44209 -46.58938 34625 ft 471 kts 258°
2026-04-30 14:48 51.41795 -46.79921 34664 ft 486 kts 257°
2026-04-30 14:48 51.39313 -47.01179 34430 ft 488 kts 257°
2026-04-30 14:48 51.36817 -47.22217 34413 ft 476 kts 257°
2026-04-30 14:48 51.34318 -47.42917 34476 ft 474 kts 257°
2026-04-30 14:49 51.31758 -47.63791 34692 ft 480 kts 257°
2026-04-30 14:49 51.29109 -47.85051 34343 ft 497 kts 257°
2026-04-30 14:49 51.26411 -48.06418 34414 ft 484 kts 256°
2026-04-30 14:49 51.23727 -48.27312 34288 ft 478 kts 256°
2026-04-30 14:50 51.18285 -48.68747 34664 ft 482 kts 256°
2026-04-30 14:50 51.15441 -48.89930 34380 ft 497 kts 256°
2026-04-30 14:51 51.09680 -49.31969 34106 ft 471 kts 255°
2026-04-30 14:51 51.06852 -49.52148 34510 ft 470 kts 255°
2026-04-30 14:51 51.00888 -49.93890 34406 ft 492 kts 255°
2026-04-30 14:52 50.96688 -50.14085 34393 ft 473 kts 246°
2026-04-30 14:52 50.87394 -50.52108 34603 ft 468 kts 246°
2026-04-30 14:52 50.82596 -50.71637 34386 ft 484 kts 246°
2026-04-30 14:53 50.72889 -51.10645 34240 ft 466 kts 246°
2026-04-30 14:53 50.68119 -51.29551 34339 ft 462 kts 246°
2026-04-30 14:54 50.58377 -51.67691 34297 ft 481 kts 245°
2026-04-30 14:54 50.49432 -52.06462 34274 ft 472 kts 260°
2026-04-30 14:55 50.46381 -52.47478 36325 ft 474 kts 261°
2026-04-30 14:55 50.44746 -52.68124 36498 ft 479 kts 260°
2026-04-30 14:55 50.41375 -53.09363 36125 ft 467 kts 260°
2026-04-30 14:56 50.37965 -53.49270 36411 ft 466 kts 260°
2026-04-30 14:56 50.34324 -53.90202 36327 ft 481 kts 260°
2026-04-30 14:57 50.32443 -54.10719 36284 ft 470 kts 260°
2026-04-30 14:58 50.24669 -54.91475 36209 ft 479 kts 259°
2026-04-30 14:58 50.22621 -55.11812 36194 ft 466 kts 259°
2026-04-30 14:58 50.18531 -55.51315 36415 ft 464 kts 259°
2026-04-30 14:59 50.14189 -55.91848 36435 ft 477 kts 258°
2026-04-30 15:00 50.07526 -56.51526 36339 ft 460 kts 258°
2026-04-30 15:00 50.02905 -56.91271 36456 ft 478 kts 257°
2026-04-30 15:01 49.98064 -57.31691 36022 ft 463 kts 257°
2026-04-30 15:01 49.95668 -57.51213 36301 ft 458 kts 256°
2026-04-30 15:01 49.90683 -57.90938 36260 ft 481 kts 256°
2026-04-30 15:02 49.85524 -58.30955 36006 ft 463 kts 255°
2026-04-30 15:03 49.77690 -58.89513 36401 ft 474 kts 254°
2026-04-30 15:03 49.72227 -59.29080 36137 ft 466 kts 254°
2026-04-30 15:04 49.66732 -59.67755 36445 ft 462 kts 253°
2026-04-30 15:04 49.58079 -60.26826 36044 ft 467 kts 253°
2026-04-30 15:05 49.49277 -60.84632 36271 ft 477 kts 253°
2026-04-30 15:06 49.43092 -61.24120 36074 ft 467 kts 252°
2026-04-30 15:06 49.36969 -61.62234 36279 ft 461 kts 252°
2026-04-30 15:07 49.29148 -62.09737 36158 ft 478 kts 252°
2026-04-30 15:07 49.15896 -62.87329 36120 ft 464 kts 252°
2026-04-30 15:08 49.02237 -63.63842 36272 ft 479 kts 252°
2026-04-30 15:08 48.80332 -64.80300 36101 ft 469 kts 252°
2026-04-30 15:09 48.65471 -65.55563 36080 ft 466 kts 251°
2026-04-30 15:09 48.49842 -66.31557 36118 ft 480 kts 250°
2026-04-30 15:10 48.33631 -67.07501 35981 ft 472 kts 249°
2026-04-30 15:11 47.83383 -69.26833 35824 ft 460 kts 246°
2026-04-30 15:12 47.52550 -70.30021 35956 ft 466 kts 240°
2026-04-30 15:13 47.29774 -70.98413 35740 ft 456 kts 239°
2026-04-30 15:14 46.83544 -72.31915 35772 ft 469 kts 238°
2026-04-30 15:14 46.47761 -73.30817 35776 ft 461 kts 238°
2026-04-30 15:17 45.86352 -75.00483 35690 ft 453 kts 239°
2026-04-30 15:19 45.37994 -76.30300 35858 ft 477 kts 238°